Location: Casteau
(50.5142°N, 4.0161°E)
Time: 18:55:11
(UTC+00:00)

Tiros 1 - Pass Details

Date: 31 July 2021
Orbit: 630 x 663 km, 48.4° (Epoch: 28 September)

Event Time Altitude Azimuth Distance (km) Brightness Sun altitude
Rises 23:58:51 0° 280° (W) 2,958 10.7 -21.2°
Reaches altitude 10° 00:01:30 10° 268° (W) 2,039 9.7 -21.2°
Enters shadow 00:02:47 16° 256° (WSW) 1,664 9.1 -21.2°
Maximum altitude 00:05:19 25° 213° (SSW) 1,288 - -21.2°
Drops below altitude 10° 00:09:06 10° 158° (SSE) 2,015 - -21.1°
Sets 00:11:43 0° 146° (SE) 2,915 - -21.1°
